Showing default

PTD-R (TYVAK-0127), 60523

Orbit data source: Space-Track

PTD-R (TYVAK-0127), 60523 is an American payload satellite in SSO that was launched on Fri, 16 Aug 2024 UTC via an FALCON 9 launch vehicle from the Air Force Western Test Range (AFWTR). Payload-class satellites include a variety of spacecraft equipped with specific instruments for various scientific and technological missions. These include communications satellites like Starlink; space stations such as the ISS; scientific satellites like the Hubble; Earth observation satellites from companies like Planet Labs, Umbra, and HawkEye 360; GPS; miniature CubeSats for education and research; and military/defense satellites.

Not visible in the next 10 days
Identifier
60523, 2024-149BH
Orbit
SSO
Country
Flag of USUS
Related business
Manufacturer
Terran Orbital
Mission
Operational Civil Technology
Bus & Motor
CUBESAT 6U, Unknown motor
Mass
~10 kg wet, ~10 kg dry
Launch date (UTC)
2024-08-16 (2 years ago)
Launch vehicle
FALCON 9
Launch site
Air Force Western Test Range (AFWTR)
Object type
Payload
Rocket body
Debris
Shape & HBR
Box + 2 Pan, 1.1 m
Radar Cross Section
0.189 m², Medium (>0.1 m² and < 1m²)

Expand to show TLE details & history
Last TLE update: 6 hours ago

TLE from 6 hours ago
0 PTD-R (TYVAK-0127)
1 60523U 24149BH  26129.80062183  .00139540  00000-0  53524-3 0  9998
2 60523  97.3758 227.1635 0001101 194.2373 165.8868 15.87044142 97313
Epoch: 2026-05-09T19:12Z
TLE epoch observation values (Epoch: 2026-05-09T19:12:53.726Z)
Latitude
0.00005°
Longitude
71.32678°
Altitude
314.471 km
Speed
7.719 km/s
True Right ascension
15h 08m 39s
True Declination
0° 00' 00"
Sunlit
Object was in full shadow at epoch
Visualization orbit readout
Latitude
Unknown
Longitude
Unknown
Altitude
Unknown
Speed
Unknown
Apparent Right ascension
Unknown
Apparent Declination
Unknown
Sunlit
N/A
Visualization observer readout
Local Sidereal Time
09:48:26
Azimuth
Unknown
Elevation
Unknown
Doppler factor
Unknown
Orbital elements
Apogee altitude
308.187 km
Perigee altitude
306.715 km
Semi-major axis
6,685.588 km
Eccentricity
0.00011
Inclination
97.3758°
RAAN
227.1635°
Arg. of periapsis
194.2373°
True anomaly
165.88988°
Mean anomaly
165.8868°
Eccentric anomaly
165.88834°
Mean motion
3.9704 °/min
Orbital period
90.67 mins
BSTAR
0.00053524
Loading maneuver chart data...
Computing Atmospheric mass density...
Loading historical data...
Loading historical data...
Loading historical data...
Loading historical data...
Loading historical data...
Loading historical data...
Loading historical data...

Documentation

Showing up to 5 results
|